Proserpine Hamilton Isla, Australia

9:50 AM AEST on December 08, 2016 (GMT +1000)
Hamilton Island

Weather History for YBHM - October, 2012

Change the Weather History Date:

Monday, October 15, 2012

  Actual Average Record
Temperature  
Mean Temperature 74 °F -  
Max Temperature 78 °F - - ()
Min Temperature 70 °F - - ()
Cooling Degree Days 9    
Growing Degree Days 24 (Base 50)    
Moisture  
Dew Point 50 °F    
Average Humidity 42    
Maximum Humidity 57    
Minimum Humidity 28    
Precipitation  
Precipitation 0.00 in - - ()
Sea Level Pressure  
Sea Level Pressure 30.15 in    
Wind  
Wind Speed 18 mph ()    
Max Wind Speed 28 mph    
Max Gust Speed -    
T = Trace of Precipitation, MM = Missing Value Source: Averaged Metar Reports

Daily Weather History Graph

Daily Weather History Graph

Search for Another Location

Airport or City:

Trip Planner

Search our weather history database for the weather conditions in past years. The results will help you decide how hot, cold, wet, or windy it might be!

Date:

Astronomy

Oct. 15, 2012 Rise Set
Actual Time 5:33 AM AEST 6:06 PM AEST
Civil Twilight 5:11 AM AEST 6:28 PM AEST
Nautical Twilight 4:45 AM AEST 6:55 PM AEST
Astronomical Twilight 4:18 AM AEST 7:21 PM AEST
Moon 4:56 AM AEST (10/15) 5:50 PM AEST (10/15)
Length of Visible Light 13h 17m
Length of Day
12h 32m
Waning Crescent, 0% of the Moon is Illuminated
Oct 15
Waning Crescent
Oct 15
New
Oct 22
First Quarter
Oct 30
Full
Nov 7
Last Quarter

Hourly Weather History & Observations

Time (AEST) Temp. Dew Point Humidity Pressure Visibility Wind Dir Wind Speed Gust Speed Precip Events Conditions
12:00 AM 71.6 °F 44.6 °F 38% 30.15 in - ESE 16.1 mph - N/A   Unknown
12:30 AM 71.6 °F 42.8 °F 35% 30.15 in - ESE 16.1 mph - N/A   Unknown
1:00 AM 71.6 °F 44.6 °F 38% 30.15 in - ESE 15.0 mph - N/A   Unknown
1:30 AM 71.6 °F 46.4 °F 41% 30.12 in - ESE 15.0 mph - N/A   Unknown
2:00 AM 71.6 °F 46.4 °F 41% 30.12 in - ESE 13.8 mph - N/A   Unknown
2:30 AM 71.6 °F 46.4 °F 41% 30.12 in - SE 15.0 mph - N/A   Unknown
3:00 AM 71 °F 47 °F 31% 30.11 in - SE 15.0 mph - -  
3:00 AM 69.8 °F 46.4 °F 43% 30.09 in - SE 15.0 mph - N/A   Unknown
3:30 AM 71.6 °F 46.4 °F 41% 30.09 in - SE 15.0 mph - N/A   Unknown
4:00 AM 71.6 °F 46.4 °F 41% 30.12 in - SE 16.1 mph - N/A   Unknown
4:30 AM 71.6 °F 46.4 °F 41% 30.12 in - SE 16.1 mph - N/A   Unknown
5:00 AM 71.6 °F 44.6 °F 38% 30.12 in - SE 17.3 mph - N/A   Unknown
5:30 AM 69.8 °F 46.4 °F 43% 30.12 in - SE 17.3 mph - N/A   Unknown
6:00 AM 71 °F 46 °F 29% 30.14 in - SE 17.3 mph - -  
6:00 AM 71.6 °F 46.4 °F 41% 30.12 in - SE 17.3 mph - N/A   Unknown
6:30 AM 73.4 °F 44.6 °F 36% 30.15 in - SE 18.4 mph - N/A   Unknown
7:00 AM 73.4 °F 44.6 °F 36% 30.15 in - SE 19.6 mph - N/A   Unknown
7:30 AM 73.4 °F 44.6 °F 36% 30.15 in - SSE 20.7 mph - N/A   Unknown
8:00 AM 73.4 °F 46.4 °F 38% 30.15 in - SSE 21.9 mph - N/A   Unknown
8:30 AM 73.4 °F 51.8 °F 47% 30.18 in - SSE 21.9 mph - N/A   Unknown
9:00 AM 74 °F 55 °F 40% 30.19 in - SSE 21.9 mph - -  
9:00 AM 75.2 °F 55.4 °F 50% 30.18 in - SSE 21.9 mph - N/A   Unknown
9:30 AM 75.2 °F 55.4 °F 50% 30.18 in - SSE 23.0 mph - N/A   Unknown
10:00 AM 78.8 °F 51.8 °F 39% 30.18 in - SE 20.7 mph - N/A   Unknown
10:30 AM 77.0 °F 44.6 °F 32% 30.18 in - SE 20.7 mph - N/A   Unknown
11:00 AM 77.0 °F 50.0 °F 39% 30.18 in - SE 23.0 mph - N/A   Unknown
11:30 AM 77.0 °F 46.4 °F 34% 30.18 in - ESE 23.0 mph - N/A   Unknown
12:00 PM 77 °F 50 °F 28% 30.17 in - ESE 25.3 mph - -  
12:00 PM 77.0 °F 50.0 °F 39% 30.15 in - ESE 25.3 mph - N/A   Unknown
12:30 PM 77.0 °F 55.4 °F 47% 30.15 in - ESE 26.5 mph - N/A   Unknown
1:00 PM 78.8 °F 51.8 °F 39% 30.15 in - ESE 26.5 mph - N/A   Unknown
1:30 PM 77.0 °F 46.4 °F 34% 30.15 in - ESE 25.3 mph - N/A   Unknown
2:00 PM 77.0 °F 48.2 °F 36% 30.12 in - ESE 25.3 mph - N/A   Unknown
2:30 PM 77.0 °F 46.4 °F 34% 30.12 in - ESE 25.3 mph - N/A   Unknown
3:00 PM 76 °F 58 °F 44% 30.12 in - ESE 24.2 mph - -  
3:00 PM 77.0 °F 59.0 °F 54% 30.12 in - ESE 24.2 mph - N/A   Unknown
3:30 PM 75.2 °F 46.4 °F 36% 30.12 in - ESE 26.5 mph - N/A   Unknown
4:00 PM 75.2 °F 55.4 °F 50% 30.12 in - ESE 25.3 mph - N/A   Unknown
4:30 PM 75.2 °F 57.2 °F 53% 30.12 in - SE 26.5 mph - N/A   Unknown
5:00 PM 73.4 °F 57.2 °F 57% 30.12 in - ESE 25.3 mph - N/A   Unknown
5:30 PM 73.4 °F 53.6 °F 50% 30.12 in - ESE 25.3 mph - N/A   Unknown
6:00 PM 73 °F 54 °F 40% 30.14 in - SE 26.5 mph - -  
6:00 PM 73.4 °F 53.6 °F 50% 30.15 in - SE 26.5 mph - N/A   Unknown
6:30 PM 73.4 °F 53.6 °F 50% 30.15 in - SE 26.5 mph - N/A   Unknown
7:00 PM 73.4 °F 53.6 °F 50% 30.15 in - ESE 26.5 mph - N/A   Unknown
7:30 PM 73.4 °F 50.0 °F 44% 30.15 in - ESE 24.2 mph - N/A   Unknown
8:00 PM 73.4 °F 51.8 °F 47% 30.15 in - ESE 25.3 mph - N/A   Unknown
8:30 PM 73.4 °F 51.8 °F 47% 30.18 in - ESE 23.0 mph - N/A   Unknown
9:00 PM 73 °F 52 °F 36% 30.18 in - ESE 24.2 mph - -  
9:00 PM 73.4 °F 51.8 °F 47% 30.18 in - ESE 24.2 mph - N/A   Unknown
9:30 PM 73.4 °F 51.8 °F 47% 30.18 in - ESE 24.2 mph - N/A   Unknown
10:00 PM 73.4 °F 51.8 °F 47% 30.18 in - ESE 25.3 mph - N/A   Unknown
10:30 PM 73.4 °F 53.6 °F 50% 30.18 in - ESE 25.3 mph - N/A   Unknown
11:00 PM 73.4 °F 53.6 °F 50% 30.18 in - ESE 24.2 mph - N/A   Unknown
11:30 PM 73.4 °F 51.8 °F 47% 30.15 in - ESE 27.6 mph - N/A   Unknown